GFSNE_prec_frzra_294.txt.gz
Freezing_Rain_Accumulation
0.00 0.00 0.00 0.00 0.00 0.00 0.00 0.00 0.00 0.00 0.00 0.00 0.00 0.00 0.00 0.00 0.00 0.00 0.00 0.00 0.00 0.00 0.00 0.00 0.00 0.00 0.00 0.00 0.00 0.00 0.00 0.00 0.00 0.00 0.00 0.00 0.00 0.00
0.00 0.00 0.00 0.00 0.00 0.00 0.00 0.00 0.00 0.00 0.00 0.00 0.00 0.00 0.00 0.00 0.00 0.00 0.00 0.00 0.00 0.00 0.00 0.00 0.00 0.00 0.00 0.00 0.00 0.00 0.00 0.00 0.00 0.00 0.00 0.00 0.00 0.00
0.00 0.00 0.00 0.00 0.00 0.00 0.00 0.00 0.00 0.00 0.00 0.00 0.00 0.00 0.00 0.00 0.00 0.00 0.00 0.00 0.00 0.00 0.00 0.00 0.00 0.00 0.00 0.00 0.00 0.00 0.00 0.00 0.00 0.00 0.00 0.00 0.00 0.00
0.00 0.00 0.00 0.00 0.00 0.00 0.00 0.00 0.00 0.00 0.00 0.06 0.00 0.00 0.00 0.00 0.00 0.00 0.00 0.00 0.00 0.00 0.00 0.00 0.00 0.00 0.00 0.00 0.00 0.00 0.00 0.00 0.00 0.00 0.00 0.00 0.00 0.00
0.00 0.00 0.00 0.09 0.04 0.18 0.17 0.00 0.00 0.00 0.00 0.00 0.06 0.00 0.00 0.07 0.00 0.00 0.00 0.00 0.00 0.00 0.00 0.00 0.00 0.00 0.00 0.00 0.00 0.00 0.00 0.00 0.00 0.00 0.00 0.00 0.00 0.00
0.00 0.00 0.00 0.00 0.00 0.01 0.00 0.23 0.12 0.00 0.09 0.00 0.00 0.09 0.05 0.00 0.00 0.00 0.00 0.00 0.00 0.00 0.00 0.00 0.00 0.00 0.00 0.00 0.00 0.00 0.00 0.00 0.00 0.00 0.00 0.00 0.00 0.00
0.00 0.00 0.00 0.00 0.00 0.00 0.00 0.00 0.00 0.00 0.01 0.00 0.00 0.03 0.06 0.02 0.10 0.09 0.00 0.00 0.21 0.00 0.00 0.00 0.00 0.00 0.00 0.00 0.00 0.00 0.00 0.00 0.00 0.00 0.00 0.00 0.00 0.00
0.22 0.00 0.00 0.00 0.00 0.00 0.00 0.00 0.14 0.66 0.08 0.00 0.15 0.18 0.75 0.39 0.00 0.00 0.05 0.00 0.01 0.00 0.00 0.03 0.00 0.00 0.00 0.00 0.00 0.00 0.00 0.00 0.00 0.00 0.00 0.00 0.00 0.00
0.59 0.52 0.40 0.80 0.47 0.54 0.54 0.51 0.54 0.00 0.77 0.39 0.45 1.08 1.05 0.94 0.75 0.00 0.03 0.00 0.13 0.17 0.00 0.00 0.00 0.11 0.00 0.00 0.00 0.00 0.00 0.00 0.00 0.00 0.00 0.00 0.00 0.00
0.00 0.00 0.00 0.00 0.00 0.00 0.11 0.20 0.32 0.06 0.05 0.21 0.23 0.65 0.66 0.33 0.78 0.75 0.58 0.00 0.00 0.25 0.45 0.24 0.47 0.68 0.34 0.14 0.00 0.00 0.00 0.00 0.00 0.00 0.00 0.00 0.00 0.00
0.00 0.00 0.00 0.00 0.00 0.00 0.00 0.00 0.40 0.92 0.20 0.15 0.04 0.04 0.10 0.27 0.00 0.00 0.26 0.30 0.36 0.82 0.91 0.52 0.97 1.35 0.75 0.80 0.15 0.00 0.00 0.00 0.00 0.00 0.00 0.00 0.00 0.00
0.31 0.35 0.08 0.07 0.09 0.00 0.00 0.09 0.56 0.68 0.73 1.09 1.21 1.11 1.03 1.14 1.19 0.67 0.31 0.09 0.34 0.86 0.84 1.30 1.14 1.18 0.48 0.22 0.14 0.00 0.00 0.00 0.00 0.00 0.00 0.00 0.00 0.07
1.03 0.95 0.77 0.33 0.00 0.00 0.15 0.66 1.07 1.07 1.72 1.31 1.24 1.34 1.10 0.82 0.63 0.83 0.92 0.96 1.03 0.87 0.32 0.09 0.58 0.53 0.59 0.30 0.19 0.16 0.12 0.12 0.00 0.00 0.00 0.00 0.00 0.11
0.75 0.64 0.70 0.16 0.11 0.41 1.06 1.36 1.70 1.04 0.74 0.34 0.24 0.16 0.23 0.20 0.24 0.28 0.54 0.64 0.65 0.79 0.44 0.30 0.18 0.40 0.40 0.17 0.28 0.09 0.08 0.20 0.11 0.21 0.21 0.00 0.00 0.16
0.52 0.74 0.47 0.41 0.19 0.25 0.36 0.00 0.00 0.00 0.00 0.01 0.01 0.00 0.00 0.00 0.00 0.00 0.00 0.00 0.13 0.43 0.40 0.22 0.41 0.39 0.45 0.37 0.18 0.01 0.02 0.03 0.01 0.05 0.00 0.00 0.12 0.13
0.30 0.16 0.16 0.00 0.00 0.00 0.00 0.00 0.00 0.00 0.00 0.00 0.00 0.00 0.00 0.00 0.00 0.00 0.00 0.00 0.00 0.00 0.00 0.00 0.00 0.00 0.04 0.00 0.01 0.00 0.02 0.02 0.00 0.00 0.00 0.00 0.00 0.00
0.00 0.00 0.00 0.02 0.02 0.00 0.00 0.00 0.00 0.00 0.00 0.00 0.00 0.00 0.00 0.00 0.00 0.00 0.00 0.00 0.05 0.10 0.11 0.00 0.00 0.00 0.00 0.00 0.01 0.00 0.00 0.00 0.00 0.00 0.00 0.00 0.00 0.00
0.00 0.00 0.00 0.00 0.00 0.00 0.00 0.00 0.00 0.00 0.00 0.00 0.00 0.00 0.00 0.00 0.03 0.00 0.00 0.00 0.05 0.04 0.04 0.05 0.00 0.00 0.00 0.00 0.00 0.00 0.00 0.00 0.00 0.00 0.00 0.00 0.02 0.00
0.00 0.00 0.00 0.00 0.00 0.00 0.00 0.00 0.00 0.00 0.00 0.00 0.00 0.00 0.00 0.00 0.00 0.01 0.00 0.00 0.00 0.03 0.04 0.00 0.00 0.00 0.05 0.05 0.00 0.00 0.00 0.00 0.00 0.00 0.00 0.00 0.00 0.00
0.00 0.00 0.00 0.00 0.00 0.00 0.00 0.00 0.00 0.00 0.00 0.00 0.00 0.00 0.00 0.00 0.01 0.00 0.00 0.00 0.00 0.00 0.02 0.00 0.00 0.00 0.00 0.00 0.03 0.00 0.00 0.00 0.00 0.00 0.00 0.11 0.13 0.20
0.00 0.00 0.00 0.00 0.00 0.00 0.00 0.00 0.00 0.00 0.00 0.00 0.00 0.00 0.00 0.00 0.01 0.00 0.02 0.00 0.00 0.00 0.03 0.00 0.00 0.00 0.00 0.00 0.08 0.13 0.21 0.00 0.00 0.00 0.00 0.00 0.10 0.07
0.00 0.00 0.00 0.00 0.00 0.00 0.00 0.00 0.00 0.00 0.00 0.00 0.00 0.00 0.00 0.00 0.00 0.00 0.00 0.00 0.00 0.00 0.00 0.00 0.00 0.00 0.00 0.00 0.03 0.02 0.19 0.28 0.13 0.16 0.11 0.00 0.00 0.01
0.00 0.00 0.00 0.00 0.00 0.00 0.00 0.00 0.00 0.00 0.00 0.00 0.00 0.00 0.00 0.00 0.00 0.00 0.00 0.01 0.00 0.00 0.00 0.00 0.00 0.00 0.00 0.00 0.00 0.09 0.18 0.16 0.34 0.27 0.26 0.38 0.00 0.00

GFSNE_prec_frzra_300.txt.gz
Freezing_Rain_Accumulation
0.00 0.00 0.00 0.00 0.00 0.00 0.00 0.00 0.00 0.00 0.00 0.00 0.00 0.00 0.00 0.00 0.00 0.00 0.00 0.00 0.00 0.00 0.00 0.00 0.00 0.00 0.00 0.00 0.00 0.00 0.00 0.00 0.00 0.00 0.00 0.00 0.00 0.00
0.00 0.00 0.00 0.00 0.00 0.00 0.00 0.00 0.00 0.00 0.00 0.00 0.00 0.00 0.00 0.00 0.00 0.00 0.00 0.00 0.00 0.00 0.00 0.00 0.00 0.00 0.00 0.00 0.00 0.00 0.00 0.00 0.00 0.00 0.00 0.00 0.00 0.00
0.00 0.00 0.00 0.00 0.00 0.00 0.00 0.00 0.00 0.00 0.00 0.00 0.00 0.00 0.00 0.00 0.00 0.00 0.00 0.00 0.00 0.00 0.00 0.00 0.00 0.00 0.00 0.00 0.00 0.00 0.00 0.00 0.00 0.00 0.00 0.00 0.00 0.00
0.00 0.00 0.00 0.00 0.00 0.00 0.00 0.00 0.00 0.00 0.00 0.06 0.00 0.00 0.00 0.00 0.00 0.00 0.00 0.00 0.00 0.00 0.00 0.00 0.00 0.00 0.00 0.00 0.00 0.00 0.00 0.00 0.00 0.00 0.00 0.00 0.00 0.00
0.00 0.00 0.00 0.09 0.04 0.18 0.17 0.00 0.00 0.00 0.00 0.00 0.06 0.00 0.00 0.07 0.00 0.00 0.00 0.00 0.00 0.00 0.00 0.00 0.00 0.00 0.00 0.00 0.00 0.00 0.00 0.00 0.00 0.00 0.00 0.00 0.00 0.00
0.00 0.00 0.00 0.00 0.00 0.01 0.00 0.23 0.12 0.00 0.09 0.00 0.00 0.09 0.05 0.00 0.00 0.00 0.00 0.00 0.00 0.00 0.00 0.00 0.00 0.00 0.00 0.00 0.00 0.00 0.00 0.00 0.00 0.00 0.00 0.00 0.00 0.00
0.00 0.00 0.00 0.00 0.00 0.00 0.00 0.00 0.00 0.00 0.01 0.00 0.00 0.03 0.06 0.02 0.10 0.09 0.00 0.00 0.21 0.00 0.00 0.00 0.00 0.00 0.00 0.00 0.00 0.00 0.00 0.00 0.00 0.00 0.00 0.00 0.00 0.00
0.22 0.00 0.00 0.00 0.00 0.00 0.00 0.00 0.14 0.73 0.08 0.00 0.15 0.18 0.75 0.39 0.00 0.00 0.05 0.00 0.01 0.00 0.00 0.03 0.00 0.00 0.00 0.00 0.00 0.00 0.00 0.00 0.00 0.00 0.00 0.00 0.00 0.00
0.59 0.52 0.40 0.80 0.47 0.54 0.54 0.51 0.54 0.00 0.88 0.39 0.45 1.16 1.05 0.94 0.75 0.00 0.03 0.00 0.13 0.17 0.00 0.00 0.00 0.11 0.00 0.00 0.00 0.00 0.00 0.00 0.00 0.00 0.00 0.00 0.00 0.00
0.00 0.00 0.00 0.00 0.00 0.00 0.11 0.20 0.32 0.06 0.05 0.21 0.23 0.65 0.66 0.33 0.78 0.75 0.58 0.00 0.00 0.25 0.45 0.24 0.47 0.68 0.34 0.14 0.00 0.00 0.00 0.00 0.00 0.00 0.00 0.00 0.00 0.00
0.00 0.00 0.00 0.00 0.00 0.00 0.00 0.00 0.40 0.92 0.20 0.15 0.04 0.04 0.10 0.27 0.00 0.00 0.26 0.30 0.36 0.82 0.91 0.52 0.97 1.35 0.75 0.80 0.15 0.00 0.00 0.00 0.00 0.00 0.00 0.00 0.00 0.00
0.31 0.35 0.08 0.07 0.09 0.00 0.00 0.09 0.56 0.68 0.73 1.09 1.21 1.11 1.03 1.14 1.19 0.67 0.31 0.09 0.34 0.86 0.84 1.30 1.14 1.18 0.48 0.22 0.14 0.00 0.00 0.00 0.00 0.00 0.00 0.00 0.00 0.07
1.03 0.95 0.77 0.33 0.00 0.00 0.15 0.66 1.07 1.07 1.72 1.31 1.26 1.34 1.10 0.82 0.63 0.83 0.92 0.96 1.03 0.87 0.32 0.09 0.58 0.53 0.59 0.30 0.19 0.16 0.12 0.12 0.00 0.00 0.00 0.00 0.00 0.11
0.75 0.64 0.70 0.16 0.11 0.41 1.06 1.36 1.70 1.04 0.74 0.34 0.24 0.16 0.23 0.24 0.24 0.28 0.54 0.64 0.65 0.79 0.44 0.30 0.18 0.40 0.40 0.17 0.28 0.09 0.08 0.20 0.11 0.21 0.21 0.00 0.00 0.16
0.52 0.74 0.47 0.41 0.19 0.25 0.36 0.00 0.00 0.00 0.00 0.01 0.01 0.00 0.00 0.00 0.00 0.00 0.00 0.00 0.13 0.43 0.40 0.22 0.41 0.39 0.45 0.37 0.18 0.01 0.02 0.03 0.01 0.05 0.00 0.00 0.12 0.13
0.30 0.16 0.16 0.00 0.00 0.00 0.00 0.00 0.00 0.00 0.00 0.00 0.00 0.00 0.00 0.00 0.00 0.00 0.00 0.00 0.00 0.00 0.00 0.00 0.00 0.00 0.04 0.00 0.01 0.00 0.02 0.02 0.00 0.00 0.00 0.00 0.00 0.00
0.00 0.00 0.00 0.02 0.02 0.00 0.00 0.00 0.00 0.00 0.00 0.00 0.00 0.00 0.00 0.00 0.00 0.00 0.00 0.00 0.05 0.10 0.11 0.00 0.00 0.00 0.00 0.00 0.23 0.00 0.00 0.00 0.00 0.00 0.00 0.00 0.00 0.00
0.00 0.00 0.00 0.00 0.00 0.00 0.00 0.00 0.00 0.00 0.00 0.00 0.00 0.00 0.00 0.00 0.03 0.00 0.00 0.00 0.05 0.04 0.04 0.05 0.00 0.00 0.00 0.00 0.00 0.00 0.00 0.00 0.00 0.00 0.00 0.00 0.02 0.00
0.00 0.00 0.00 0.00 0.00 0.00 0.00 0.00 0.00 0.00 0.00 0.00 0.00 0.00 0.00 0.00 0.00 0.01 0.00 0.00 0.00 0.03 0.04 0.00 0.00 0.00 0.05 0.05 0.00 0.00 0.00 0.00 0.00 0.00 0.00 0.00 0.00 0.00
0.00 0.00 0.00 0.00 0.00 0.00 0.00 0.00 0.00 0.00 0.00 0.00 0.00 0.00 0.00 0.00 0.01 0.00 0.00 0.00 0.00 0.00 0.02 0.00 0.00 0.00 0.00 0.00 0.03 0.00 0.00 0.00 0.00 0.00 0.00 0.11 0.13 0.20
0.00 0.00 0.00 0.00 0.00 0.00 0.00 0.00 0.00 0.00 0.00 0.00 0.00 0.00 0.00 0.00 0.01 0.00 0.02 0.00 0.00 0.00 0.03 0.00 0.00 0.00 0.00 0.00 0.08 0.13 0.21 0.00 0.00 0.00 0.00 0.00 0.10 0.07
0.00 0.00 0.00 0.00 0.00 0.00 0.00 0.00 0.00 0.00 0.00 0.00 0.00 0.00 0.00 0.00 0.00 0.00 0.00 0.00 0.00 0.00 0.00 0.00 0.00 0.00 0.00 0.00 0.03 0.02 0.19 0.28 0.13 0.16 0.11 0.00 0.00 0.01
0.00 0.00 0.00 0.00 0.00 0.00 0.00 0.00 0.00 0.00 0.00 0.00 0.00 0.00 0.00 0.00 0.00 0.00 0.00 0.01 0.00 0.00 0.00 0.00 0.00 0.00 0.00 0.00 0.00 0.09 0.18 0.16 0.34 0.27 0.26 0.38 0.00 0.00

GFSNE_prec_frzra_303.txt.gz
Freezing_Rain_Accumulation
0.00 0.00 0.00 0.00 0.00 0.00 0.00 0.00 0.00 0.00 0.00 0.00 0.00 0.00 0.00 0.00 0.00 0.00 0.00 0.00 0.00 0.00 0.00 0.00 0.00 0.00 0.00 0.00 0.00 0.00 0.00 0.00 0.00 0.00 0.00 0.00 0.00 0.00
0.00 0.00 0.00 0.00 0.00 0.00 0.00 0.00 0.00 0.00 0.00 0.00 0.00 0.00 0.00 0.00 0.00 0.00 0.00 0.00 0.00 0.00 0.00 0.00 0.00 0.00 0.00 0.00 0.00 0.00 0.00 0.00 0.00 0.00 0.00 0.00 0.00 0.00
0.00 0.00 0.00 0.00 0.00 0.00 0.00 0.00 0.00 0.00 0.00 0.00 0.00 0.00 0.00 0.00 0.00 0.00 0.00 0.00 0.00 0.00 0.00 0.00 0.00 0.00 0.00 0.00 0.00 0.00 0.00 0.00 0.00 0.00 0.00 0.00 0.00 0.00
0.00 0.00 0.00 0.00 0.00 0.00 0.00 0.00 0.00 0.00 0.00 0.06 0.00 0.00 0.00 0.00 0.00 0.00 0.00 0.00 0.00 0.00 0.00 0.00 0.00 0.00 0.00 0.00 0.00 0.00 0.00 0.00 0.00 0.00 0.00 0.00 0.00 0.00
0.00 0.00 0.00 0.09 0.04 0.18 0.17 0.00 0.00 0.00 0.00 0.00 0.06 0.00 0.00 0.07 0.00 0.00 0.00 0.00 0.00 0.00 0.00 0.00 0.00 0.00 0.00 0.00 0.00 0.00 0.00 0.00 0.00 0.00 0.00 0.00 0.00 0.00
0.00 0.00 0.00 0.00 0.00 0.01 0.00 0.23 0.12 0.00 0.09 0.00 0.00 0.09 0.05 0.00 0.00 0.00 0.00 0.00 0.00 0.00 0.00 0.00 0.00 0.00 0.00 0.00 0.00 0.00 0.00 0.00 0.00 0.00 0.00 0.00 0.00 0.00
0.00 0.00 0.00 0.00 0.00 0.00 0.00 0.00 0.00 0.00 0.01 0.00 0.00 0.03 0.06 0.02 0.10 0.09 0.00 0.00 0.21 0.00 0.00 0.00 0.00 0.00 0.00 0.00 0.00 0.00 0.00 0.00 0.00 0.00 0.00 0.00 0.00 0.00
0.22 0.00 0.00 0.00 0.00 0.00 0.00 0.00 0.14 0.73 0.08 0.00 0.15 0.18 0.75 0.39 0.00 0.00 0.05 0.00 0.01 0.00 0.00 0.03 0.00 0.00 0.00 0.00 0.00 0.00 0.00 0.00 0.00 0.00 0.00 0.00 0.00 0.00
0.59 0.52 0.40 0.80 0.47 0.54 0.54 0.51 0.54 0.00 0.88 0.39 0.45 1.16 1.05 0.94 0.75 0.00 0.03 0.00 0.13 0.17 0.00 0.00 0.00 0.11 0.00 0.00 0.00 0.00 0.00 0.00 0.00 0.00 0.00 0.00 0.00 0.00
0.00 0.00 0.00 0.00 0.00 0.00 0.11 0.20 0.32 0.06 0.05 0.21 0.23 0.65 0.66 0.33 0.78 0.75 0.58 0.00 0.00 0.25 0.45 0.24 0.47 0.68 0.34 0.14 0.00 0.00 0.00 0.00 0.00 0.00 0.00 0.00 0.00 0.00
0.00 0.00 0.00 0.00 0.00 0.00 0.00 0.00 0.40 1.02 0.20 0.15 0.04 0.04 0.10 0.27 0.00 0.00 0.26 0.30 0.36 0.82 0.91 0.52 0.97 1.35 0.75 0.80 0.15 0.00 0.00 0.00 0.00 0.00 0.00 0.00 0.00 0.00
0.31 0.35 0.08 0.07 0.09 0.00 0.00 0.09 0.56 0.68 0.79 1.09 1.21 1.11 1.03 1.14 1.19 0.67 0.31 0.09 0.34 0.86 0.84 1.30 1.14 1.18 0.48 0.22 0.14 0.00 0.00 0.00 0.00 0.00 0.00 0.00 0.00 0.07
1.03 0.95 0.77 0.33 0.00 0.00 0.15 0.66 1.07 1.07 1.78 1.40 1.26 1.34 1.10 0.82 0.63 0.83 0.92 0.96 1.03 0.87 0.32 0.09 0.58 0.53 0.59 0.30 0.19 0.16 0.12 0.12 0.00 0.00 0.00 0.00 0.00 0.11
0.75 0.64 0.70 0.16 0.11 0.41 1.06 1.36 1.70 1.04 0.74 0.39 0.31 0.16 0.30 0.30 0.24 0.28 0.54 0.64 0.65 0.79 0.44 0.30 0.18 0.40 0.40 0.17 0.28 0.09 0.08 0.20 0.11 0.21 0.21 0.00 0.00 0.16
0.52 0.74 0.47 0.41 0.19 0.25 0.36 0.00 0.00 0.00 0.00 0.01 0.01 0.00 0.00 0.00 0.00 0.00 0.00 0.00 0.13 0.43 0.40 0.22 0.41 0.39 0.45 0.37 0.18 0.01 0.02 0.03 0.01 0.05 0.00 0.00 0.12 0.13
0.30 0.16 0.16 0.00 0.00 0.00 0.00 0.00 0.00 0.00 0.00 0.00 0.00 0.00 0.00 0.00 0.00 0.00 0.01 0.00 0.00 0.00 0.00 0.00 0.16 0.00 0.04 0.27 0.01 0.17 0.02 0.12 0.00 0.00 0.00 0.00 0.00 0.00
0.00 0.00 0.00 0.02 0.02 0.00 0.00 0.00 0.00 0.00 0.00 0.00 0.00 0.00 0.00 0.00 0.00 0.00 0.00 0.00 0.08 0.10 0.11 0.00 0.00 0.20 0.00 0.00 0.23 0.00 0.00 0.00 0.00 0.00 0.00 0.00 0.00 0.00
0.00 0.00 0.00 0.00 0.00 0.00 0.00 0.00 0.00 0.00 0.00 0.00 0.00 0.00 0.00 0.00 0.03 0.00 0.00 0.00 0.05 0.04 0.04 0.05 0.00 0.00 0.00 0.00 0.00 0.00 0.00 0.00 0.00 0.00 0.00 0.00 0.02 0.00
0.00 0.00 0.00 0.00 0.00 0.00 0.00 0.00 0.00 0.00 0.00 0.00 0.00 0.00 0.00 0.00 0.00 0.01 0.00 0.00 0.00 0.03 0.04 0.00 0.00 0.00 0.05 0.05 0.00 0.00 0.00 0.00 0.00 0.00 0.00 0.00 0.00 0.00
0.00 0.00 0.00 0.00 0.00 0.00 0.00 0.00 0.00 0.00 0.00 0.00 0.00 0.00 0.00 0.00 0.01 0.00 0.00 0.00 0.00 0.00 0.02 0.00 0.00 0.00 0.00 0.00 0.03 0.00 0.00 0.00 0.00 0.00 0.00 0.11 0.13 0.20
0.00 0.00 0.00 0.00 0.00 0.00 0.00 0.00 0.00 0.00 0.00 0.00 0.00 0.00 0.00 0.00 0.01 0.00 0.02 0.00 0.00 0.00 0.03 0.00 0.00 0.00 0.00 0.00 0.08 0.13 0.21 0.00 0.00 0.00 0.00 0.00 0.10 0.07
0.00 0.00 0.00 0.00 0.00 0.00 0.00 0.00 0.00 0.00 0.00 0.00 0.00 0.00 0.00 0.00 0.00 0.00 0.00 0.00 0.00 0.00 0.00 0.00 0.00 0.00 0.00 0.00 0.03 0.02 0.19 0.28 0.13 0.16 0.11 0.00 0.00 0.01
0.00 0.00 0.00 0.00 0.00 0.00 0.00 0.00 0.00 0.00 0.00 0.00 0.00 0.00 0.00 0.00 0.00 0.00 0.00 0.01 0.00 0.00 0.00 0.00 0.00 0.00 0.00 0.00 0.00 0.09 0.18 0.16 0.34 0.27 0.26 0.38 0.00 0.00

GFSNE_prec_frzra_306.txt.gz
Freezing_Rain_Accumulation
0.00 0.00 0.00 0.00 0.00 0.00 0.00 0.00 0.00 0.00 0.00 0.00 0.00 0.00 0.00 0.00 0.00 0.00 0.00 0.00 0.00 0.00 0.00 0.00 0.00 0.00 0.00 0.00 0.00 0.00 0.00 0.00 0.00 0.00 0.00 0.00 0.00 0.00
0.00 0.00 0.00 0.00 0.00 0.00 0.00 0.00 0.00 0.00 0.00 0.00 0.00 0.00 0.00 0.00 0.00 0.00 0.00 0.00 0.00 0.00 0.00 0.00 0.00 0.00 0.00 0.00 0.00 0.00 0.00 0.00 0.00 0.00 0.00 0.00 0.00 0.00
0.00 0.00 0.00 0.00 0.00 0.00 0.00 0.00 0.00 0.00 0.00 0.00 0.00 0.00 0.00 0.00 0.00 0.00 0.00 0.00 0.00 0.00 0.00 0.00 0.00 0.00 0.00 0.00 0.00 0.00 0.00 0.00 0.00 0.00 0.00 0.00 0.00 0.00
0.00 0.00 0.00 0.00 0.00 0.00 0.00 0.00 0.00 0.00 0.00 0.06 0.00 0.00 0.00 0.00 0.00 0.00 0.00 0.00 0.00 0.00 0.00 0.00 0.00 0.00 0.00 0.00 0.00 0.00 0.00 0.00 0.00 0.00 0.00 0.00 0.00 0.00
0.00 0.00 0.00 0.09 0.04 0.18 0.17 0.00 0.00 0.00 0.00 0.00 0.06 0.00 0.00 0.07 0.00 0.00 0.00 0.00 0.00 0.00 0.00 0.00 0.00 0.00 0.00 0.00 0.00 0.00 0.00 0.00 0.00 0.00 0.00 0.00 0.00 0.00
0.00 0.00 0.00 0.00 0.00 0.01 0.00 0.23 0.12 0.00 0.09 0.00 0.00 0.09 0.05 0.00 0.00 0.00 0.00 0.00 0.00 0.00 0.00 0.00 0.00 0.00 0.00 0.00 0.00 0.00 0.00 0.00 0.00 0.00 0.00 0.00 0.00 0.00
0.00 0.00 0.00 0.00 0.00 0.00 0.00 0.00 0.00 0.00 0.01 0.00 0.00 0.03 0.06 0.02 0.10 0.09 0.00 0.00 0.21 0.00 0.00 0.00 0.00 0.00 0.00 0.00 0.00 0.00 0.00 0.00 0.00 0.00 0.00 0.00 0.00 0.00
0.22 0.00 0.00 0.00 0.00 0.00 0.00 0.00 0.14 0.73 0.08 0.00 0.15 0.18 0.75 0.39 0.00 0.00 0.05 0.00 0.01 0.00 0.00 0.03 0.00 0.00 0.00 0.00 0.00 0.00 0.00 0.00 0.00 0.00 0.00 0.00 0.00 0.00
0.59 0.52 0.40 0.80 0.47 0.54 0.54 0.51 0.54 0.00 0.88 0.39 0.45 1.16 1.05 0.94 0.75 0.00 0.03 0.00 0.13 0.17 0.00 0.00 0.00 0.11 0.00 0.00 0.00 0.00 0.00 0.00 0.00 0.00 0.00 0.00 0.00 0.00
0.00 0.00 0.00 0.00 0.00 0.00 0.11 0.20 0.32 0.06 0.05 0.21 0.23 0.65 0.66 0.33 0.78 0.75 0.58 0.00 0.00 0.25 0.45 0.24 0.47 0.68 0.34 0.14 0.00 0.00 0.00 0.00 0.00 0.00 0.00 0.00 0.00 0.00
0.00 0.00 0.00 0.00 0.00 0.00 0.06 0.07 0.40 1.04 0.20 0.15 0.04 0.04 0.10 0.27 0.00 0.00 0.26 0.30 0.36 0.82 0.91 0.52 0.97 1.35 0.75 0.80 0.15 0.00 0.00 0.00 0.00 0.00 0.00 0.00 0.00 0.00
0.31 0.35 0.08 0.07 0.09 0.00 0.10 0.09 0.63 0.76 0.79 1.09 1.21 1.11 1.03 1.14 1.19 0.67 0.31 0.09 0.34 0.86 0.84 1.30 1.14 1.18 0.48 0.22 0.14 0.00 0.00 0.00 0.00 0.00 0.00 0.00 0.00 0.07
1.03 0.95 0.77 0.33 0.00 0.00 0.15 0.74 1.20 1.21 1.78 1.40 1.26 1.34 1.10 0.82 0.63 0.83 0.92 0.96 1.03 0.87 0.32 0.09 0.58 0.53 0.59 0.30 0.19 0.16 0.12 0.12 0.00 0.00 0.00 0.00 0.00 0.11
0.75 0.64 0.70 0.16 0.11 0.41 1.06 1.40 1.76 1.11 0.74 0.51 0.42 0.30 0.49 0.52 0.24 0.28 0.54 0.64 0.65 0.79 0.44 0.30 0.18 0.40 0.40 0.17 0.28 0.09 0.08 0.20 0.11 0.21 0.21 0.00 0.00 0.16
0.52 0.74 0.47 0.41 0.19 0.25 0.36 0.00 0.01 0.02 0.04 0.10 0.11 0.15 0.19 0.19 0.00 0.00 0.00 0.00 0.13 0.43 0.40 0.22 0.41 0.39 0.45 0.37 0.18 0.01 0.02 0.03 0.01 0.05 0.00 0.00 0.12 0.13
0.30 0.16 0.16 0.00 0.00 0.00 0.00 0.00 0.00 0.00 0.00 0.00 0.00 0.00 0.00 0.07 0.10 0.00 0.01 0.00 0.00 0.20 0.25 0.24 0.16 0.00 0.04 0.27 0.01 0.17 0.02 0.14 0.00 0.00 0.00 0.00 0.00 0.00
0.00 0.00 0.00 0.02 0.02 0.00 0.00 0.00 0.00 0.00 0.00 0.00 0.00 0.00 0.00 0.00 0.03 0.03 0.04 0.05 0.18 0.24 0.30 0.00 0.24 0.43 0.23 0.00 0.41 0.17 0.00 0.00 0.00 0.00 0.00 0.07 0.07 0.00
0.00 0.00 0.00 0.00 0.00 0.00 0.00 0.00 0.00 0.00 0.00 0.00 0.00 0.00 0.00 0.00 0.03 0.00 0.00 0.00 0.05 0.04 0.04 0.05 0.00 0.00 0.00 0.00 0.00 0.00 0.00 0.00 0.00 0.00 0.00 0.00 0.02 0.00
0.00 0.00 0.00 0.00 0.00 0.00 0.00 0.00 0.00 0.00 0.00 0.00 0.00 0.00 0.00 0.00 0.00 0.01 0.00 0.00 0.00 0.03 0.04 0.00 0.00 0.00 0.05 0.05 0.00 0.00 0.00 0.00 0.00 0.00 0.00 0.00 0.00 0.00
0.00 0.00 0.00 0.00 0.00 0.00 0.00 0.00 0.00 0.00 0.00 0.00 0.00 0.00 0.00 0.00 0.01 0.00 0.00 0.00 0.00 0.00 0.02 0.00 0.00 0.00 0.00 0.00 0.03 0.00 0.00 0.00 0.00 0.00 0.00 0.11 0.13 0.20
0.00 0.00 0.00 0.00 0.00 0.00 0.00 0.00 0.00 0.00 0.00 0.00 0.00 0.00 0.00 0.00 0.01 0.00 0.02 0.00 0.00 0.00 0.03 0.00 0.00 0.00 0.00 0.00 0.08 0.13 0.21 0.00 0.00 0.00 0.00 0.00 0.10 0.07
0.00 0.00 0.00 0.00 0.00 0.00 0.00 0.00 0.00 0.00 0.00 0.00 0.00 0.00 0.00 0.00 0.00 0.00 0.00 0.00 0.00 0.00 0.00 0.00 0.00 0.00 0.00 0.00 0.03 0.02 0.19 0.28 0.13 0.16 0.11 0.00 0.00 0.01
0.00 0.00 0.00 0.00 0.00 0.00 0.00 0.00 0.00 0.00 0.00 0.00 0.00 0.00 0.00 0.00 0.00 0.00 0.00 0.01 0.00 0.00 0.00 0.00 0.00 0.00 0.00 0.00 0.00 0.09 0.18 0.16 0.34 0.27 0.26 0.38 0.00 0.00

GFSNE_prec_frzra_312.txt.gz
Freezing_Rain_Accumulation
0.00 0.00 0.00 0.00 0.00 0.00 0.00 0.00 0.00 0.00 0.00 0.00 0.00 0.00 0.00 0.00 0.00 0.00 0.00 0.00 0.00 0.00 0.00 0.00 0.00 0.00 0.00 0.00 0.00 0.00 0.00 0.00 0.00 0.00 0.00 0.00 0.00 0.00
0.00 0.00 0.00 0.00 0.00 0.00 0.00 0.00 0.00 0.00 0.00 0.00 0.00 0.00 0.00 0.00 0.00 0.00 0.00 0.00 0.00 0.00 0.00 0.00 0.00 0.00 0.00 0.00 0.00 0.00 0.00 0.00 0.00 0.00 0.00 0.00 0.00 0.00
0.00 0.00 0.00 0.00 0.00 0.00 0.00 0.00 0.00 0.00 0.00 0.00 0.00 0.00 0.00 0.00 0.00 0.00 0.00 0.00 0.00 0.00 0.00 0.00 0.00 0.00 0.00 0.00 0.00 0.00 0.00 0.00 0.00 0.00 0.00 0.00 0.00 0.00
0.00 0.00 0.00 0.00 0.00 0.00 0.00 0.00 0.00 0.00 0.00 0.06 0.00 0.00 0.00 0.00 0.00 0.00 0.00 0.00 0.00 0.00 0.00 0.00 0.00 0.00 0.00 0.00 0.00 0.00 0.00 0.00 0.00 0.00 0.00 0.00 0.00 0.00
0.00 0.00 0.00 0.09 0.04 0.18 0.17 0.00 0.00 0.00 0.00 0.00 0.06 0.00 0.00 0.07 0.00 0.00 0.00 0.00 0.00 0.00 0.00 0.00 0.00 0.00 0.00 0.00 0.00 0.00 0.00 0.00 0.00 0.00 0.00 0.00 0.00 0.00
0.00 0.00 0.00 0.00 0.00 0.01 0.00 0.23 0.12 0.00 0.09 0.00 0.00 0.09 0.05 0.00 0.00 0.00 0.00 0.00 0.00 0.00 0.00 0.00 0.00 0.00 0.00 0.00 0.00 0.00 0.00 0.00 0.00 0.00 0.00 0.00 0.00 0.00
0.00 0.00 0.00 0.00 0.00 0.00 0.00 0.00 0.00 0.00 0.01 0.00 0.00 0.03 0.06 0.02 0.10 0.09 0.00 0.00 0.21 0.00 0.00 0.00 0.00 0.00 0.00 0.00 0.00 0.00 0.00 0.00 0.00 0.00 0.00 0.00 0.00 0.00
0.22 0.00 0.00 0.00 0.00 0.00 0.00 0.00 0.14 0.73 0.08 0.00 0.15 0.18 0.75 0.39 0.00 0.00 0.05 0.00 0.01 0.00 0.00 0.03 0.00 0.00 0.00 0.00 0.00 0.00 0.00 0.00 0.00 0.00 0.00 0.00 0.00 0.00
0.59 0.52 0.40 0.80 0.47 0.54 0.54 0.51 0.54 0.00 0.88 0.39 0.45 1.16 1.05 0.94 0.75 0.00 0.03 0.00 0.13 0.17 0.00 0.00 0.00 0.11 0.00 0.00 0.00 0.00 0.00 0.00 0.00 0.00 0.00 0.00 0.00 0.00
0.00 0.00 0.00 0.00 0.00 0.00 0.11 0.20 0.32 0.06 0.05 0.21 0.23 0.65 0.66 0.33 0.78 0.75 0.58 0.00 0.00 0.25 0.45 0.24 0.47 0.68 0.34 0.14 0.00 0.00 0.00 0.00 0.00 0.00 0.00 0.00 0.00 0.00
0.00 0.00 0.00 0.00 0.00 0.00 0.06 0.07 0.40 1.04 0.20 0.15 0.04 0.04 0.10 0.27 0.00 0.00 0.26 0.30 0.36 0.82 0.91 0.52 0.97 1.35 0.75 0.80 0.15 0.00 0.00 0.00 0.00 0.00 0.00 0.00 0.00 0.00
0.31 0.35 0.08 0.07 0.09 0.00 0.10 0.09 0.63 0.76 0.79 1.09 1.21 1.11 1.03 1.14 1.19 0.67 0.31 0.09 0.34 0.86 0.84 1.30 1.14 1.18 0.48 0.22 0.14 0.00 0.00 0.00 0.00 0.00 0.00 0.00 0.00 0.07
1.03 0.95 0.77 0.33 0.00 0.00 0.15 0.74 1.30 1.21 1.78 1.40 1.26 1.34 1.10 0.82 0.63 0.83 0.92 0.96 1.03 0.87 0.32 0.09 0.58 0.53 0.59 0.30 0.19 0.16 0.12 0.12 0.00 0.00 0.00 0.00 0.00 0.11
0.75 0.64 0.70 0.16 0.11 0.41 1.09 1.47 1.76 1.11 0.74 0.51 0.42 0.39 0.49 0.52 0.24 0.28 0.54 0.64 0.65 0.79 0.44 0.30 0.18 0.40 0.40 0.17 0.28 0.09 0.08 0.20 0.11 0.21 0.21 0.00 0.00 0.16
0.52 0.74 0.47 0.41 0.19 0.25 0.36 0.02 0.06 0.02 0.04 0.19 0.23 0.35 0.43 0.19 0.00 0.00 0.00 0.00 0.13 0.43 0.40 0.22 0.41 0.39 0.45 0.37 0.18 0.01 0.04 0.03 0.01 0.05 0.00 0.00 0.12 0.13
0.30 0.16 0.16 0.00 0.00 0.00 0.00 0.00 0.00 0.01 0.03 0.09 0.11 0.14 0.00 0.07 0.10 0.00 0.01 0.00 0.00 0.94 0.92 0.57 0.16 0.00 0.04 0.27 0.01 0.17 0.02 0.19 0.02 0.02 0.01 0.01 0.00 0.00
0.00 0.00 0.00 0.02 0.02 0.00 0.00 0.00 0.00 0.00 0.00 0.01 0.02 0.03 0.05 0.08 0.19 0.03 0.04 0.05 0.46 1.00 1.08 0.77 0.87 0.68 0.23 0.00 0.64 0.31 0.18 0.11 0.05 0.05 0.03 0.12 0.11 0.06
0.00 0.00 0.00 0.00 0.00 0.00 0.00 0.00 0.00 0.00 0.00 0.00 0.00 0.00 0.00 0.01 0.06 0.07 0.09 0.12 0.64 0.51 0.78 0.83 0.00 0.00 0.00 0.30 0.00 0.00 0.00 0.00 0.00 0.00 0.00 0.05 0.02 0.00
0.00 0.00 0.00 0.00 0.00 0.00 0.00 0.00 0.00 0.00 0.00 0.00 0.00 0.00 0.00 0.00 0.00 0.11 0.16 0.20 0.29 0.34 0.39 0.36 0.37 0.00 0.38 0.05 0.00 0.00 0.00 0.00 0.00 0.00 0.00 0.00 0.00 0.00
0.00 0.00 0.00 0.00 0.00 0.00 0.00 0.00 0.00 0.00 0.00 0.00 0.00 0.00 0.00 0.00 0.01 0.00 0.02 0.03 0.06 0.10 0.02 0.00 0.00 0.00 0.00 0.00 0.03 0.00 0.00 0.00 0.00 0.00 0.00 0.11 0.13 0.20
0.00 0.00 0.00 0.00 0.00 0.00 0.00 0.00 0.00 0.00 0.00 0.00 0.00 0.00 0.00 0.00 0.01 0.00 0.02 0.00 0.00 0.00 0.03 0.00 0.00 0.00 0.00 0.00 0.08 0.13 0.21 0.00 0.00 0.00 0.00 0.00 0.10 0.07
0.00 0.00 0.00 0.00 0.00 0.00 0.00 0.00 0.00 0.00 0.00 0.00 0.00 0.00 0.00 0.00 0.00 0.00 0.00 0.00 0.00 0.00 0.00 0.00 0.00 0.00 0.00 0.00 0.03 0.02 0.19 0.28 0.13 0.16 0.11 0.00 0.00 0.01
0.00 0.00 0.00 0.00 0.00 0.00 0.00 0.00 0.00 0.00 0.00 0.00 0.00 0.00 0.00 0.00 0.00 0.00 0.00 0.01 0.00 0.00 0.00 0.00 0.00 0.00 0.00 0.00 0.00 0.09 0.18 0.16 0.34 0.27 0.26 0.38 0.00 0.00